Regional Weather Roundup
Issued by NWS Sterling, VA

Home | Current Version | Previous Version | Graphics & Text | Print | Product List | Glossary On
Versions: 1 2 3 4 5 6 7 8 9 10 11 12 13 14 15 16 17 18 19 20 21 22 23 24 25 26 27
000
ASUS41 KLWX 231710
RWRLWX

REGIONAL WEATHER ROUNDUP
NATIONAL WEATHER SERVICE BALTIMORE MD/WASHINGTON DC
100 PM EDT WED APR 23 2014

Note: "FAIR" indicates few or no clouds below 12,000 feet
with no significant weather and/or obstructions to visibility.
 TC=TEMPERATURE CELSIUS

 * =Non NWS site. Station does not report precipitation (e.g. rain,
    snow, etc.), thunder, or fog.

DCZ001-MDZ009-015-VAZ040>042-051-053>054-231800-
WASHINGTON METRO

CITY           SKY/WX    TMP DP  RH WIND       PRES   REMARKS
WASHINGTON NAT MOSUNNY   59  35  40 NW23G33   29.83S
DULLES         PTSUNNY   55  33  43 NW21G31   29.83F
ANDREWS AFB    PTSUNNY   55  33  43 NW17G26   29.81S
FT BELVOIR     MOSUNNY   58  33  39 NW21G33   29.83F
QUANTICO       MOSUNNY   60  32  34 NW16G33   29.84F
COLLEGE PARK*  PTSUNNY   55  34  44 W18G28    29.81F
LEESBURG*      CLOUDY    55  39  54 N24G36    29.84F
MANASSAS*      MOSUNNY   57  36  44 NW20G26   29.84F
GAITHERSBURG*  PTSUNNY   54  34  47 NW15G28   29.85R

$$

MDZ006>007-011-014-231800-
BALTIMORE METRO

CITY           SKY/WX    TMP DP  RH WIND       PRES   REMARKS
BWI AIRPORT    MOSUNNY   55  34  45 NW17G29   29.79S
MD SCIENCE CTR   N/A     56  34  43 MISG      29.79F
MARTIN STATE   PTSUNNY   57  39  51 NW17G32   29.79F
ANNAPOLIS      MOSUNNY   55  36  48 NW17G26   29.78F
FORT MEADE*    MOSUNNY   57  34  41 NW17G25   29.82F

$$

MDZ012-015-019>023-231800-
MARYLAND EASTERN SHORE

CITY           SKY/WX    TMP DP  RH WIND       PRES   REMARKS
OCEAN CITY     SUNNY     59  34  39 NW21G29   29.72S
SALISBURY      SUNNY     59  34  39 W18G36    29.74S
BAY BRIDGE AP* MOSUNNY   54  34  47 NW16G23   29.79S
CAMBRIDGE*     SUNNY     57  34  41 NW16G30   29.78R
EASTON*        MOSUNNY   57  37  47 NW17G30   29.81S

$$

MDZ017>025-231800-
SOUTHERN MARYLAND

CITY           SKY/WX    TMP DP  RH WIND       PRES   REMARKS
PATUXENT RIVER MOSUNNY   58  32  37 NW22G31   29.79S
ST INIGOES     MOSUNNY   58  34  40 W18G30    29.79S
LEONARDTOWN*   MOSUNNY   55  32  41 NW15G26   29.81F

$$

MDZ003>005-231800-
NORTH CENTRAL MARYLAND

CITY           SKY/WX    TMP DP  RH WIND       PRES   REMARKS
FREDERICK*     PTSUNNY   55  39  54 NW16G26   29.86F
HAGERSTOWN APT CLOUDY    48  33  56 NW17G26   29.87R
WESTMINSTER*   CLOUDY    52  36  54 NW18G26   29.81S

$$

MDZ501>502-231800-
WESTERN MARYLAND

CITY           SKY/WX    TMP DP  RH WIND       PRES   REMARKS
OAKLAND*       CLOUDY    34  30  86 W10G18    29.92R WCI  26
CUMBERLAND*    MOSUNNY   50  32  50 NW16G26   29.96S

$$

VAZ025>031-231800-
SHENANDOAH VALLEY

CITY           SKY/WX    TMP DP  RH WIND       PRES   REMARKS
WINCHESTER*    MOSUNNY   54  34  47 NW24G31   29.87R
STAUNTON*      SUNNY     56  29  34 NW15G21   29.88F

$$

WVZ021-048>050-054>055-231800-
EASTERN WEST VIRGINIA PANHANDLE

CITY           SKY/WX    TMP DP  RH WIND       PRES   REMARKS
MARTINSBURG    CLOUDY    53  32  44 W18G28    29.88R
PETERSBURG*    MOSUNNY   59  39  48 NW16G23   29.93R

$$

VAZ036>039-050-231800-
CENTRAL FOOTHILLS

CITY           SKY/WX    TMP DP  RH WIND       PRES   REMARKS
CHARLOTTESVILL SUNNY     60  31  33 N14G22    29.84F
CULPEPER*      MOSUNNY   61  28  29 N14G22    29.85S

$$

VAZ055>057-231800-
NORTH AND CENTRAL PIEDMONT

CITY           SKY/WX    TMP DP  RH WIND       PRES   REMARKS
FREDERICKSBRG* MOSUNNY   59  33  36 NW15G23   29.83F
STAFFORD*      PTSUNNY   56  35  43 NW15G29   29.88F

$$

NCZ024-NYZ072-PAZ021-071-VAZ022-071-231800-
OTHER REGIONAL OBSERVATIONS

CITY           SKY/WX    TMP DP  RH WIND       PRES   REMARKS
NEW YORK CITY  CLOUDY    56  34  43 NW8G24    29.61F
PHILADELPHIA   PTSUNNY   57  32  38 NW25G35   29.70F
PITTSBURGH     CLOUDY    42  33  70 W18       30.01R
ROANOKE        SUNNY     61  26  26 W16G23    29.90F
RICHMOND       MOSUNNY   65  29  25 NW15G29   29.81F
RALEIGH        MOSUNNY   66  30  26 NW9G21    29.87F

$$

ANZ530>537-231800-
MARINE OBSERVATIONS

STATION/POSITION TIME  TEMP    WIND        PRES
                       AIR SEA DIR/SP/G
                 (UTC) (F)     (DEG/KT/KT) (MB)
THOMAS PT LIGHT  1700   53 54  300/ 21/ 24 1008.7F
BALT KEY BRIDGE  1700   52     290/ 22/ 26 1009.0S
COVE POINT       1700   53     330/ 20/ 26 1008.4F
LEWISETTA        1700   54 58  320/ 22/ 31 1009.2F
SOLOMONS ISLAND  1700      55                N/A
PINEY POINT      1700          330/ 24/ 27   N/A

$$




USA.gov is the U.S. government's official web portal to all federal, state and local government web resources and services.